Change the Weather History Date:

Saturday, September 28, 2013

  Actual Average Record
Temperature  
Mean Temperature 78 °F -  
Max Temperature 84 °F 85 °F 94 °F (2014)
Min Temperature 73 °F 70 °F 73 °F (1997)
Cooling Degree Days 14    
Growing Degree Days 28 (Base 50)    
Moisture  
Dew Point 72 °F    
Average Humidity 84    
Maximum Humidity 95    
Minimum Humidity 70    
Precipitation  
Precipitation 0.43 in 0.17 in - ()
Sea Level Pressure  
Sea Level Pressure 29.86 in    
Wind  
Wind Speed 3 mph ()    
Max Wind Speed 10 mph    
Max Gust Speed -    
Visibility 6.0 miles    
Events Rain    
Averages and records for this station are not official NWS values.
T = Trace of Precipitation, MM = Missing Value Source: Averaged Metar Reports

Daily Weather History Graph

Daily Weather History Graph

Search for Another Location

Airport or City:

Trip Planner

Search our weather history database for the weather conditions in past years. The results will help you decide how hot, cold, wet, or windy it might be!

Date:

Astronomy

Sep. 28, 2013 Rise Set
Actual Time 6:14 AM ICT 6:15 PM ICT
Civil Twilight 5:52 AM ICT 6:37 PM ICT
Nautical Twilight 5:26 AM ICT 7:02 PM ICT
Astronomical Twilight 5:01 AM ICT 7:27 PM ICT
Moon 12:17 AM ICT (9/28) 1:32 PM ICT (9/28)
Length of Visible Light 12h 44m
Length of Day
12h 01m
Last Quarter, 40% of the Moon is Illuminated
Sep 28
Last Quarter
Oct 5
New
Oct 12
First Quarter
Oct 19
Full
Oct 27
Last Quarter

Hourly Weather History & Observations

Time (ICT) Temp. Heat Index Dew Point Humidity Pressure Visibility Wind Dir Wind Speed Gust Speed Precip Events Conditions
12:00 AM 75.2 °F - 73.4 °F 94% 29.89 in 6.2 mi SSW 4.6 mph - N/A Rain Light Rain
12:30 AM 75.2 °F - 71.6 °F 89% 29.89 in 3.7 mi SSW 5.8 mph - N/A Rain Rain
1:00 AM 75 °F - 74 °F 95% 29.84 in 5 mi Calm Calm - - Rain Light Rain
1:00 AM 75.2 °F - 71.6 °F 89% 29.89 in 6.2 mi SW 2.3 mph - N/A Rain Light Rain
1:30 AM 75.2 °F - 71.6 °F 89% 29.86 in 6.2 mi SSW 5.8 mph - N/A   Mostly Cloudy
2:00 AM 75.2 °F - 71.6 °F 89% 29.86 in 6.2 mi SSW 3.5 mph - N/A   Mostly Cloudy
2:30 AM 75.2 °F - 71.6 °F 89% 29.86 in 6.2 mi SSW 2.3 mph - N/A   Mostly Cloudy
3:00 AM 75.2 °F - 71.6 °F 89% 29.86 in 6.2 mi SW 3.5 mph - N/A   Mostly Cloudy
3:30 AM 75.2 °F - 71.6 °F 89% 29.86 in 6.2 mi Calm Calm - N/A   Mostly Cloudy
4:00 AM 75.2 °F - 71.6 °F 89% 29.86 in 6.2 mi Calm Calm - N/A   Mostly Cloudy
4:30 AM 75.2 °F - 71.6 °F 89% 29.83 in 6.2 mi Calm Calm - N/A   Mostly Cloudy
5:00 AM 75.2 °F - 71.6 °F 89% 29.86 in 6.2 mi Calm Calm - N/A   Mostly Cloudy
5:30 AM 75.2 °F - 71.6 °F 89% 29.86 in 6.2 mi Calm Calm - N/A   Mostly Cloudy
6:00 AM 75.2 °F - 71.6 °F 89% 29.86 in 6.2 mi Calm Calm - N/A Rain Light Rain
6:30 AM 75.2 °F - 71.6 °F 89% 29.86 in 5.0 mi Calm Calm - N/A   Drizzle
7:00 AM 73.4 °F - 71.6 °F 94% 29.89 in 3.7 mi NE 3.5 mph - N/A Rain Light Rain
7:30 AM 73.4 °F - 71.6 °F 94% 29.89 in 5.0 mi Calm Calm - N/A Rain Light Rain
8:00 AM 75.2 °F - 71.6 °F 89% 29.89 in 6.2 mi NNE 4.6 mph - N/A   Mostly Cloudy
8:30 AM 77.0 °F - 71.6 °F 83% 29.92 in 6.2 mi NE 4.6 mph - N/A   Mostly Cloudy
9:00 AM 78.8 °F - 71.6 °F 78% 29.92 in 6.2 mi NNE 4.6 mph - N/A   Mostly Cloudy
9:30 AM 78.8 °F - 69.8 °F 74% 29.92 in 6.2 mi North 2.3 mph - N/A   Mostly Cloudy
10:00 AM 78.8 °F - 69.8 °F 74% 29.92 in 6.2 mi North 3.5 mph - N/A   Mostly Cloudy
10:30 AM 80.6 °F 83.9 °F 69.8 °F 70% 29.92 in 6.2 mi East 3.5 mph - N/A   Mostly Cloudy
11:00 AM 80.6 °F 84.6 °F 71.6 °F 74% 29.89 in 6.2 mi East 3.5 mph - N/A   Mostly Cloudy
11:30 AM 80.6 °F 83.9 °F 69.8 °F 70% 29.89 in 6.2 mi East 3.5 mph - N/A   Mostly Cloudy
12:00 PM 80.6 °F 85.4 °F 73.4 °F 79% 29.86 in 6.2 mi SSW 8.1 mph - N/A   Mostly Cloudy
12:30 PM 82.4 °F 87.2 °F 71.6 °F 70% 29.86 in 6.2 mi SW 5.8 mph - N/A   Mostly Cloudy
1:00 PM 78.8 °F - 71.6 °F 78% 29.83 in 6.2 mi North 10.4 mph - N/A Rain Light Rain
1:30 PM 77.0 °F - 71.6 °F 83% 29.83 in 6.2 mi North 10.4 mph - N/A   Mostly Cloudy
2:00 PM 77.0 °F - 71.6 °F 83% 29.83 in 3.1 mi SSW 6.9 mph - N/A Rain Rain
2:30 PM 77.0 °F - 73.4 °F 89% 29.80 in 6.2 mi West 4.6 mph - N/A   Mostly Cloudy
3:00 PM 77.0 °F - 71.6 °F 83% 29.80 in 5.0 mi SW 8.1 mph - N/A Rain Rain
3:30 PM 77.0 °F - 71.6 °F 83% 29.80 in 6.2 mi WSW 6.9 mph - N/A   Mostly Cloudy
4:00 PM 77.0 °F - 71.6 °F 83% 29.80 in 6.2 mi WSW 8.1 mph - N/A   Mostly Cloudy
4:30 PM 78.8 °F - 69.8 °F 74% 29.80 in 6.2 mi WSW 6.9 mph - N/A   Mostly Cloudy
5:00 PM 78.8 °F - 71.6 °F 78% 29.80 in 6.2 mi SW 6.9 mph - N/A   Mostly Cloudy
5:30 PM 78.8 °F - 69.8 °F 74% 29.80 in 6.2 mi WSW 6.9 mph - N/A   Mostly Cloudy
6:00 PM 78.8 °F - 69.8 °F 74% 29.80 in 6.2 mi SW 5.8 mph - N/A   Mostly Cloudy
6:30 PM 78.8 °F - 71.6 °F 78% 29.80 in 6.2 mi WSW 5.8 mph - N/A   Mostly Cloudy
7:00 PM 78 °F - 74 °F 84% 29.77 in 7 mi Calm Calm - -   Partly Cloudy
7:00 PM 78.8 °F - 71.6 °F 78% 29.83 in 6.2 mi West 4.6 mph - N/A   Mostly Cloudy
7:30 PM 78.8 °F - 69.8 °F 74% 29.83 in 6.2 mi South 2.3 mph - N/A   Mostly Cloudy
8:00 PM 77.0 °F - 73.4 °F 89% 29.86 in 6.2 mi SSE 3.5 mph - N/A   Mostly Cloudy
8:30 PM 77.0 °F - 73.4 °F 89% 29.86 in 6.2 mi ESE 2.3 mph - N/A   Mostly Cloudy
9:00 PM 77.0 °F - 73.4 °F 89% 29.89 in 6.2 mi South 3.5 mph - N/A   Mostly Cloudy
9:30 PM 77.0 °F - 73.4 °F 89% 29.89 in 6.2 mi SSE 2.3 mph - N/A   Mostly Cloudy
10:00 PM 75.2 °F - 71.6 °F 89% 29.89 in 6.2 mi WNW 2.3 mph - N/A   Mostly Cloudy
10:30 PM 75.2 °F - 71.6 °F 89% 29.89 in 6.2 mi Calm Calm - N/A   Mostly Cloudy
11:00 PM 75.2 °F - 71.6 °F 89% 29.89 in 6.2 mi WNW 2.3 mph - N/A   Mostly Cloudy
11:30 PM 75.2 °F - 73.4 °F 94% 29.89 in 6.2 mi Calm Calm - N/A   Mostly Cloudy